This is the latest recevied weather packets stored in our database for station/object XQ6AK-15. If no packets are shown the sender has not sent any weather packets the latest 10 day(s).
| Time | Temp. | Humidity | Pressure | Rain* | Wind** | Luminosity | Snow |
|---|---|---|---|---|---|---|---|
| 1787756567 | 10° C | 99% | 998 hPa | 0 mm | - | 75 W/m² | - |
| 1787756265 | 10° C | 99% | 998.2 hPa | 0 mm | - | 94 W/m² | - |
| 1787755961 | 10° C | 99% | 998.3 hPa | 0 mm | - | 37 W/m² | - |
| 1787755659 | 10° C | 99% | 998.3 hPa | 3.05 mm | - | 62 W/m² | - |
| 1787755355 | 10° C | 99% | 998.5 hPa | 6.1 mm | - | 96 W/m² | - |
| 1787755055 | 10° C | 99% | 998.8 hPa | 4.32 mm | - | 33 W/m² | - |
| 1787754749 | 10° C | 99% | 998.7 hPa | 3.05 mm | - | 16 W/m² | - |
| 1787754447 | 10° C | 99% | 998.9 hPa | 1.78 mm | - | 19 W/m² | - |
| 1787754142 | 10° C | 97% | 998.6 hPa | 0 mm | - | 65 W/m² | - |
| 1787753842 | 10° C | 96% | 998.8 hPa | 0 mm | - | 56 W/m² | - |
| 1787753541 | 10° C | 97% | 998.7 hPa | 1.27 mm | - | 75 W/m² | - |
| 1787753234 | 10° C | 98% | 998.8 hPa | 1.27 mm | - | 78 W/m² | - |
| 1787752930 | 10° C | 97% | 998.7 hPa | 1.78 mm | - | 49 W/m² | - |
| 1787752628 | 10° C | 96% | 998.8 hPa | 1.78 mm | - | 34 W/m² | - |
| 1787752324 | 10.56° C | 94% | 999.1 hPa | 0 mm | - | 16 W/m² | - |
| 1787752023 | 10.56° C | 93% | 998.7 hPa | 0 mm | - | 42 W/m² | - |
| 1787751718 | 10.56° C | 93% | 998.8 hPa | 0 mm | - | 24 W/m² | - |
| 1787751414 | 10.56° C | 93% | 998.8 hPa | 0 mm | - | 25 W/m² | - |
| 1787751108 | 10.56° C | 93% | 998.9 hPa | 0 mm | - | 76 W/m² | - |
| 1787750803 | 11.11° C | 92% | 998.8 hPa | 0 mm | - | 46 W/m² | - |
| 1787750498 | 11.11° C | 92% | 998.8 hPa | 0 mm | - | 38 W/m² | - |
| 1787750193 | 11.11° C | 92% | 998.7 hPa | 0 mm | - | 121 W/m² | - |
| 1787749889 | 11.11° C | 91% | 998.9 hPa | 0 mm | - | 108 W/m² | - |
| 1787749585 | 10.56° C | 93% | 998.6 hPa | 0 mm | - | 156 W/m² | - |
| 1787749280 | 10.56° C | 94% | 998.5 hPa | 0 mm | - | 136 W/m² | - |
* Rain latest hour (hover to see other rain measurements)
** Current wind speed in m/s (hover to see current wind gust speed)